Tracking 19832 objects as of 25-Aug-2019
HD Live streaming from Space Station
objects crossing your sky now

COSMOS 340

Track COSMOS 340 now!
10-day predictions
COSMOS 340 is classified as:


NORAD ID: 4387
Int'l Code: 1970-036E
Perigee: 1,414.7 km
Apogee: 1,476.1 km
Inclination: 74.0 °
Period: 114.6 minutes
Semi major axis: 7816 km
RCS: 0.7658 m2 (medium)
Launch date: April 25, 1970
Source: Commonwealth of Independent States (former USSR) (CIS)
Launch site: PLESETSK MISSILE AND SPACE COMPLEX (PKMTR)
aabbcc
Your satellite tracking list
Your tracking list is empty




NASA's NSSDC Master Catalog

Two Line Element Set (TLE):
1  4387U 70036E   19236.88998983 -.00000011 +00000-0 +28628-4 0  9994
2  4387 074.0309 018.4608 0039278 073.8400 042.1951 12.56288031262047
Source of the keplerian elements: AFSPC